EHI
0 0 0 0 0 0 0 0 0 0 0 0 0 0 0 0 0 0 0 0 0 0 0 0 0 0 0 0 0 0 0 0 0 0 0 0 0 0 0 0 0 0 0
0 0 0 0 0 0 0 0 0 0 0 0 0 0 0 0 0 0 0 0 0 0 0 0 0 0 0 0 0 0 0 0 0 0 0 0 0 0 0 0 0 0 0
0 0 0 0 0 0 0 0 0 0 0 0 0 0 0 0 0 0 0 0 0 0 0 0 0 0 0 0 0 0 0 0 0 0 0 0 0 0 0 0 0 0 0
0 0 0 0 0 0 0 0 0 0 0 0 0 0 0 0 0 0 0 0 0 0 0 0 0 0 0 0 0 0 0 0 0 0 0 0 0 0 0 0 0 0 0
0 0 0 0 0 0 0 0 0 0 0 0 0 0 0 0 0 0 0 0 0 0 0 0 0 0 0 0 0 0 0 0 0 0 0 0 0 0 0 0 0 0 0
0 0 0 0 0 0 0 0 0 0 0 0 0 0 0 0 0 0 0 0 0 0 0 0 0 0 0 0 0 0 0 0 0 0 0 0 0 0 0 0 0 0 0
0 0 0 0 0 0 0 0 0 0 0 0 0 0 0 0 0 0 0 0 0 0 0 0 0 0 0 0 0 0 0 0 0 0 0 0 0 0 0 0 0 0 0
0 0 0 0 0 0 0 0 0 0 0 0 0 0 0 0 0 0 0 0 0 0 0 0 0 0 0 0 0 0 0 0 0 0 0 0 0 0 0 0 0 0 0
1 1 0 0 0 0 0 0 0 0 0 0 0 0 0 0 0 0 0 0 0 0 0 0 0 0 0 0 0 0 0 0 0 0 0 0 0 0 0 0 0 0 0
2 1 0 0 0 1 1 1 2 2 1 1 0 0 0 0 0 0 0 0 0 0 0 0 0 0 0 0 0 0 0 0 0 0 0 0 0 0 0 0 0 0 0
2 1 0 0 1 3 3 3 4 3 2 1 0 0 0 0 0 0 0 0 0 0 0 0 0 0 0 0 0 0 0 0 0 0 0 0 0 0 0 0 0 0 0
1 0 0 1 3 5 6 5 5 4 2 0 0 0 0 0 0 0 0 0 0 0 0 0 0 0 0 0 0 0 0 0 0 0 0 0 0 0 0 0 0 0 0
0 0 1 2 4 5 6 5 4 3 1 0 0 0 0 0 0 0 0 0 0 0 0 0 0 0 0 0 0 0 0 0 0 0 0 0 0 0 0 0 0 0 0
0 1 2 3 3 4 4 4 3 2 1 0 0 0 0 0 0 0 0 0 0 0 0 0 0 0 0 0 0 0 0 0 0 0 0 0 0 0 0 0 0 0 0
0 1 2 3 3 3 3 3 3 2 1 0 0 0 0 0 0 0 0 0 0 0 0 0 0 0 0 0 0 0 0 0 0 0 0 0 0 0 0 0 0 0 0
0 0 1 1 2 2 2 2 1 1 0 0 0 0 0 0 0 0 0 0 0 0 0 0 0 0 0 0 0 0 0 0 0 0 0 0 0 0 0 0 0 0 0
0 0 0 0 1 1 1 1 0 0 0 0 0 0 0 0 0 0 0 0 0 0 0 0 0 0 0 0 0 0 0 0 0 0 0 0 0 0 0 0 0 0 0
0 0 0 0 0 0 0 0 0 0 0 0 0 0 0 0 0 0 0 0 0 0 0 0 0 0 0 0 0 0 0 0 0 0 0 0 0 0 0 0 0 0 0
0 0 0 0 0 0 0 0 0 0 0 0 0 0 0 0 0 0 0 0 0 0 0 0 0 0 0 0 0 0 0 0 0 0 0 0 0 0 0 0 0 0 0
0 0 0 0 0 0 0 0 0 0 0 0 0 0 0 0 0 0 0 0 0 0 0 0 0 0 0 0 0 0 0 0 0 0 0 0 0 0 0 0 0 0 0
0 0 0 0 0 0 0 0 0 0 0 0 0 0 0 0 0 0 0 0 0 0 0 0 0 0 0 0 0 0 0 0 0 0 0 0 0 0 0 0 0 0 0
0 0 0 0 0 0 0 0 0 0 0 0 0 0 0 0 0 0 0 0 0 0 0 0 0 0 0 0 0 0 0 0 0 0 0 0 0 0 0 0 0 0 0
0 0 0 0 0 0 0 0 0 0 0 0 0 0 0 0 0 0 0 0 0 0 0 0 0 0 0 0 0 0 0 0 0 0 0 0 0 0 0 0 0 0 0
0 0 0 0 0 0 0 0 0 0 0 0 0 0 0 0 0 0 0 0 0 0 0 0 0 0 0 0 0 0 0 0 0 0 0 0 0 0 0 0 0 0 0
0 0 0 0 0 0 0 0 0 0 0 0 0 0 0 0 0 0 0 0 0 0 0 0 0 0 0 0 0 0 0 0 0 0 0 0 0 0 0 0 0 0 0
0 0 0 0 0 0 0 0 0 0 0 0 0 0 0 0 0 0 0 0 0 0 0 0 0 0 0 0 0 0 0 0 0 0 0 0 0 0 0 0 0 0 0
Wind_Speed
6 6 5 4 4 4 4 4 4 3 3 3 3 3 4 4 4 3 2 2 4 7 8 8 8 8 7 6 5 4 4 6 7 7 6 6 5 5 5 5 5 4 3
6 5 5 5 4 4 3 4 4 3 3 3 3 4 4 4 4 5 4 3 4 5 7 8 8 6 5 3 2 1 1 2 3 5 6 7 6 6 6 6 6 5 5
7 6 5 5 4 4 4 3 4 3 3 3 4 4 4 4 5 5 5 4 3 3 4 6 5 4 2 2 1 0 1 1 2 1 3 5 6 6 7 6 6 6 6
8 6 5 5 5 4 4 3 3 3 3 3 3 2 3 3 5 5 4 4 4 3 1 1 3 2 0 0 1 0 1 2 2 2 2 3 5 7 7 8 7 7 7
9 7 5 5 5 4 4 4 4 3 3 3 3 3 3 3 3 3 3 3 3 3 2 2 2 3 2 2 2 2 2 3 2 2 3 4 5 6 7 7 8 8 8
9 7 5 6 6 5 4 4 5 4 3 3 3 3 3 2 2 2 2 2 2 2 2 2 1 3 5 4 4 3 3 3 3 3 4 5 6 6 7 7 7 7 8
9 7 5 6 5 5 5 5 4 5 3 2 3 3 3 2 1 0 1 1 2 3 2 2 2 1 2 5 6 5 4 3 3 3 4 5 6 6 6 6 6 6 6
8 6 7 5 5 4 5 5 5 4 3 3 3 3 3 4 3 1 1 1 2 2 3 3 3 3 2 2 5 7 6 5 4 4 5 6 6 6 6 5 4 4 5
8 7 7 6 5 5 5 6 6 6 4 4 3 3 3 3 1 3 2 1 1 1 2 2 3 3 3 2 2 5 7 7 6 6 6 6 6 6 6 6 5 4 4
7 7 7 7 6 5 5 5 5 5 5 4 3 3 4 3 3 2 3 2 1 1 1 1 2 2 3 2 3 6 7 7 6 7 7 7 7 6 6 6 7 6 5
6 7 7 7 6 5 6 6 5 5 4 5 4 3 4 4 5 5 4 3 2 2 1 0 0 1 2 2 2 5 7 7 7 7 7 7 8 8 9 9 9 9 8
5 7 7 7 6 6 6 6 6 6 5 5 4 3 3 3 4 4 5 4 3 2 1 0 0 1 1 2 4 6 6 7 7 8 7 8 9 9 9 9 10 10 9
5 7 7 7 6 6 6 6 6 5 5 5 4 3 3 3 2 3 4 4 4 2 2 2 1 1 1 1 2 5 5 7 7 8 9 9 9 9 9 9 10 10 10
6 7 7 7 7 7 6 6 5 5 4 4 4 4 3 3 2 3 3 3 4 4 4 3 2 1 1 1 3 4 3 6 6 7 8 9 8 9 9 9 9 10 10
5 8 7 7 7 7 6 6 4 5 5 4 4 4 3 2 2 2 2 3 4 4 3 3 3 2 1 1 2 1 2 5 6 6 7 7 7 8 8 9 9 10 10
7 8 8 7 7 6 6 6 5 5 6 5 4 4 4 3 2 2 2 2 3 4 3 1 1 2 2 1 2 1 3 5 5 5 6 6 7 7 7 8 9 9 10
8 9 8 8 8 7 7 6 6 6 6 6 5 5 5 4 3 2 2 2 3 3 4 1 1 1 2 2 2 1 1 2 2 5 5 5 6 6 7 7 8 8 9
8 8 8 8 8 8 8 8 7 7 7 7 6 6 5 4 4 3 3 3 3 3 4 3 2 2 2 2 2 1 1 1 2 4 4 5 5 6 6 6 7 7 8
7 7 8 8 8 8 8 7 7 7 6 6 6 6 6 5 5 3 3 3 2 2 3 3 2 2 1 2 2 1 1 0 1 2 2 4 5 5 5 6 6 7 8
8 8 8 8 7 7 7 7 7 7 6 6 6 5 5 5 5 4 3 3 3 3 3 3 2 2 2 2 2 2 2 1 0 0 1 2 3 4 5 6 6 7 7
7 7 8 7 7 7 7 8 7 7 7 7 6 5 5 4 3 3 3 3 4 3 3 3 3 3 3 3 3 2 2 2 2 1 1 0 0 0 2 4 4 5 6
7 7 8 8 8 6 9 11 8 7 7 7 7 6 5 6 6 6 5 3 3 4 4 4 4 4 5 4 3 3 2 2 2 2 2 1 1 0 1 2 4 5 5
7 8 8 8 8 8 12 13 11 7 7 6 7 6 5 5 6 5 5 5 4 2 4 4 5 5 4 4 4 4 3 3 1 1 2 2 2 1 1 2 4 4 4
7 7 8 8 8 9 13 14 13 7 6 7 7 7 7 7 6 6 5 4 4 3 2 3 3 2 2 3 4 3 3 2 1 1 2 2 2 1 1 1 3 4 3
6 6 6 7 8 9 13 14 13 7 6 7 7 7 7 7 9 9 6 5 5 3 2 1 0 1 3 3 4 3 4 3 2 3 2 2 1 1 1 2 1 2 3
6 6 6 7 8 9 13 15 14 6 7 6 6 7 9 9 10 12 8 6 6 5 5 5 4 5 4 5 5 3 3 2 2 2 3 2 1 1 2 2 1 1 1
Wind_Direction
171 170 173 175 182 180 185 195 205 199 214 222 234 256 260 265 276 277 252 198 272 287 286 283 279 272 268 263 263 264 263 256 250 248 247 251 259 265 268 275 278 284 294
176 176 177 181 183 189 194 204 208 216 226 238 252 262 273 279 280 284 291 249 224 269 286 286 282 280 274 268 255 289 296 292 271 257 252 250 254 260 263 267 268 270 276
183 185 187 188 188 189 195 208 210 230 238 246 252 266 279 288 289 288 290 297 279 239 269 291 290 291 276 230 212 262 360 40 29 349 284 262 257 259 260 261 263 264 265
191 192 194 195 190 191 200 207 219 225 229 242 255 262 271 281 288 301 298 295 299 301 261 328 320 319 346 166 204 123 94 81 51 21 348 310 279 267 263 258 257 259 258
195 198 200 196 191 196 201 202 220 230 234 240 258 271 279 283 294 295 302 317 325 321 321 73 58 32 45 75 78 82 91 78 48 6 339 325 312 286 271 265 259 257 254
194 196 197 197 192 197 200 203 207 218 243 251 255 262 270 286 289 315 328 343 360 358 346 359 86 78 57 55 58 60 69 67 41 8 343 330 317 302 282 276 272 264 257
189 190 191 194 196 202 203 206 209 214 222 238 246 246 231 229 242 68 23 19 47 40 36 32 29 40 73 59 44 35 33 30 16 1 344 332 323 314 301 287 281 272 271
186 185 188 187 192 201 205 207 208 213 210 219 243 255 245 201 170 134 75 55 53 58 53 42 44 38 35 44 48 33 18 6 356 351 340 334 330 326 321 315 300 291 277
183 182 183 183 188 199 206 206 208 214 211 205 231 252 260 260 200 173 140 128 84 73 67 54 49 41 31 30 40 39 19 12 360 350 347 346 342 338 341 349 341 329 318
186 184 184 184 189 195 202 204 209 215 222 212 206 239 266 289 265 244 182 171 133 78 62 63 59 56 35 29 38 32 17 12 7 359 353 356 1 2 1 4 11 4 352
185 185 184 183 187 193 198 196 197 205 220 225 213 208 223 237 245 255 252 214 197 180 126 56 58 67 52 28 21 31 19 17 12 4 9 20 23 25 24 24 22 19 13
186 188 183 184 186 191 191 191 194 198 207 215 216 214 218 223 223 235 251 253 249 193 167 169 162 98 66 39 35 22 23 24 18 19 26 35 29 24 21 21 21 18 11
193 191 183 184 185 188 185 182 186 187 198 201 204 210 222 237 243 244 254 259 257 235 197 196 169 132 96 58 44 12 35 30 26 26 29 37 32 25 22 21 20 19 12
192 181 182 181 178 177 174 175 175 176 182 189 198 203 209 210 220 225 237 246 252 237 214 201 156 152 117 82 47 1 43 39 40 42 41 41 34 28 25 21 19 17 12
180 175 177 175 171 170 170 168 176 175 174 181 187 193 199 190 202 218 229 237 249 256 236 179 169 154 136 103 61 20 35 50 53 54 51 46 39 32 25 21 18 15 11
176 173 176 172 169 167 168 172 170 173 173 173 177 184 183 181 187 197 216 231 243 256 260 128 153 145 149 122 86 55 51 54 53 55 52 46 39 31 28 23 19 15 11
176 177 175 172 170 170 173 174 176 174 178 174 177 184 182 183 189 189 200 215 224 234 249 196 137 148 164 159 134 100 58 30 50 49 49 45 38 32 30 27 24 18 15
173 174 174 173 173 175 177 179 177 180 181 181 181 182 182 180 188 189 202 211 218 225 243 234 169 164 174 175 165 139 77 44 36 47 44 44 38 36 34 31 27 25 22
171 171 174 175 175 175 176 180 179 179 182 182 182 186 184 186 190 190 197 202 207 218 231 236 187 156 154 166 172 158 134 81 48 33 46 47 42 37 37 37 32 29 29
176 176 176 176 175 174 175 174 176 177 176 176 178 183 185 192 194 190 194 198 201 212 215 216 193 175 170 171 193 194 193 191 175 358 61 40 44 43 40 37 36 33 33
180 177 175 173 173 174 177 177 177 176 175 174 175 179 178 177 181 193 198 196 199 210 209 205 197 186 188 188 198 188 206 192 188 242 243 189 273 45 46 33 38 38 38
182 179 180 177 178 181 177 181 177 177 177 177 176 175 168 172 178 188 189 195 214 221 216 212 211 212 209 200 180 183 184 199 207 173 244 196 239 173 47 20 26 35 42
187 187 186 184 186 183 180 183 184 179 179 181 179 177 176 179 182 182 174 178 188 213 248 244 231 224 210 192 182 187 192 209 208 112 244 205 195 201 98 32 22 34 48
198 195 192 189 188 187 186 186 182 183 182 185 188 189 187 185 186 185 189 193 197 193 209 233 245 230 203 175 176 182 176 173 144 151 252 234 196 206 175 153 39 25 35
206 204 197 192 192 191 191 188 181 182 186 189 192 196 196 196 186 187 192 197 200 189 173 195 192 145 143 159 166 160 168 187 197 173 189 243 192 213 220 202 109 22 15
210 204 202 201 199 197 192 191 188 188 191 187 190 196 204 204 190 193 200 200 207 196 181 171 166 161 166 162 179 193 184 197 198 185 166 206 184 203 219 191 206 240 245